Portada
METAR-TAF:

METAR-TAF

Aeroports :

Southern Wisconsin Regional Airport

Janesville, Wisconsin, Estats Units d'Amèrica

latitud: 42-37N, longitud: 089-02W, altitud: 246 m

Observació

L'informe es va fer fa 40 minuts, a les 17:45 UTC
Vent 7 kt del Sud/Sud-Est
Temperatura 22°C
Humitat 41%
Pressió 1021 hPa
Visibilitat: 16.1 km
Cel clar

METAR: KJVL 231745Z 16007KT 10SM SKC 22/08 A3015

Hora: 13:25 (18:25 UTC)


TAF: manca

Observacions i pronòstics meteorològics de més de 4000 aeroports (METAR i TAF).

Les estacions disponibles són els punts grocs i vermells al mapa.

Posi el ratolí al punt desitjat per veure el nom de l'estació.

Feu clic per veure les observacions i els pronòstics meteorològics.

Per canviar el mapa: feu clic els botons verds amb una creu de color negre per apropar; al botó verd amb un guió per allunyar la imatge; o en les fletxes verdes per a mapes adjacents.


METAR-TAF: